Radiation Dose at Monitoring Post of Fukushima Daini Nuclear Power Station
Date,Time,MP-1(microSv/h),MP-2(microSv/h),MP-3(microSv/h),MP-4(microSv/h),MP-5(microSv/h),MP-6(microSv/h),MP-7(microSv/h),Wind Direction,Wind Velocity(m/s),Rain
2020/09/09,00:00,0.179,0.163,0.269,0.255,0.249,0.142,0.085,southwest,3.1,No
2020/09/09,00:10,0.182,0.163,0.271,0.254,0.250,0.141,0.086,southwest,3.3,No
2020/09/09,00:20,0.182,0.164,0.270,0.256,0.247,0.142,0.087,southwest,2.9,No
2020/09/09,00:30,0.181,0.164,0.268,0.256,0.247,0.144,0.086,southwest,2.3,No
2020/09/09,00:40,0.179,0.164,0.270,0.254,0.251,0.143,0.086,west-southwest,2.5,No
2020/09/09,00:50,0.182,0.163,0.271,0.255,0.248,0.143,0.086,west-northwest,0.9,No
2020/09/09,01:00,0.181,0.165,0.270,0.256,0.247,0.144,0.087,north-northeast,0.8,No
2020/09/09,01:10,0.180,0.164,0.268,0.255,0.247,0.143,0.086,east-northeast,0.7,No
2020/09/09,01:20,0.180,0.163,0.271,0.254,0.252,0.142,0.086,northeast,0.8,No
2020/09/09,01:30,0.183,0.164,0.271,0.257,0.250,0.143,0.087,north-northeast,1.3,No
2020/09/09,01:40,0.182,0.165,0.269,0.256,0.247,0.144,0.088,-,CALM,No
2020/09/09,01:50,0.181,0.164,0.270,0.254,0.249,0.143,0.086,north-northwest,0.9,No
2020/09/09,02:00,0.180,0.163,0.271,0.254,0.251,0.142,0.086,north,1.6,No
2020/09/09,02:10,0.182,0.165,0.269,0.257,0.248,0.144,0.087,north,1.9,No
2020/09/09,02:20,0.181,0.165,0.269,0.256,0.246,0.144,0.087,north-northeast,2.2,No
2020/09/09,02:30,0.181,0.164,0.272,0.255,0.251,0.143,0.086,north,2.3,No
2020/09/09,02:40,0.183,0.166,0.270,0.258,0.250,0.143,0.087,north,2.4,No
2020/09/09,02:50,0.183,0.165,0.268,0.257,0.248,0.143,0.088,north,3.1,No
2020/09/09,03:00,0.181,0.164,0.272,0.255,0.249,0.143,0.087,north,2.6,No
2020/09/09,03:10,0.180,0.166,0.271,0.258,0.251,0.143,0.087,northwest,1.6,No
2020/09/09,03:20,0.183,0.164,0.268,0.256,0.248,0.144,0.087,north-northwest,1.3,No
2020/09/09,03:30,0.182,0.162,0.271,0.253,0.246,0.144,0.086,north-northwest,1.3,No
2020/09/09,03:40,0.181,0.164,0.272,0.257,0.251,0.143,0.086,-,CALM,No
2020/09/09,03:50,0.181,0.164,0.270,0.256,0.250,0.143,0.087,north,1.4,No
2020/09/09,04:00,0.182,0.162,0.269,0.254,0.247,0.143,0.087,north,2.4,No
2020/09/09,04:10,0.180,0.164,0.271,0.256,0.248,0.142,0.085,north,2.0,No
2020/09/09,04:20,0.180,0.164,0.269,0.256,0.250,0.144,0.087,north,2.1,No
2020/09/09,04:30,0.182,0.163,0.268,0.255,0.246,0.144,0.086,north-northeast,2.0,No
2020/09/09,04:40,0.181,0.164,0.271,0.254,0.246,0.143,0.086,north-northeast,1.4,No
2020/09/09,04:50,0.180,0.164,0.269,0.256,0.249,0.142,0.086,north,1.1,No
2020/09/09,05:00,0.183,0.163,0.268,0.254,0.249,0.143,0.085,north,1.3,No
2020/09/09,05:10,0.182,0.164,0.271,0.255,0.246,0.142,0.086,north-northwest,2.1,No
2020/09/09,05:20,0.179,0.165,0.269,0.257,0.250,0.143,0.086,north-northwest,1.1,No
2020/09/09,05:30,0.181,0.164,0.267,0.254,0.249,0.143,0.087,north-northwest,2.3,No
2020/09/09,05:40,0.182,0.164,0.271,0.253,0.247,0.143,0.086,north-northwest,2.6,No
2020/09/09,05:50,0.181,0.164,0.271,0.257,0.246,0.142,0.085,north,2.7,No
2020/09/09,06:00,0.181,0.163,0.266,0.254,0.250,0.144,0.086,north-northwest,2.0,No
2020/09/09,06:10,0.183,0.164,0.270,0.254,0.247,0.144,0.086,north-northwest,2.4,No
2020/09/09,06:20,0.179,0.165,0.270,0.257,0.247,0.142,0.085,north,2.5,No
2020/09/09,06:30,0.180,0.164,0.268,0.253,0.246,0.144,0.086,north,2.7,No
2020/09/09,06:40,0.181,0.164,0.268,0.253,0.249,0.143,0.086,north,2.1,No
2020/09/09,06:50,0.181,0.165,0.271,0.255,0.250,0.143,0.086,north,2.2,No
2020/09/09,07:00,0.181,0.163,0.270,0.257,0.248,0.142,0.086,north-northwest,2.3,No
2020/09/09,07:10,0.179,0.163,0.267,0.254,0.245,0.144,0.087,north-northwest,2.2,No
2020/09/09,07:20,0.181,0.162,0.267,0.254,0.245,0.143,0.086,north-northwest,2.0,No
2020/09/09,07:30,0.182,0.164,0.268,0.252,0.249,0.143,0.086,north-northwest,2.4,No
2020/09/09,07:40,0.180,0.164,0.267,0.252,0.249,0.142,0.086,north-northwest,2.3,Yes
2020/09/09,07:50,0.179,0.162,0.267,0.254,0.249,0.142,0.087,north,2.1,No
2020/09/09,08:00,0.179,0.162,0.268,0.252,0.247,0.143,0.087,north-northwest,2.2,No
2020/09/09,08:10,0.181,0.162,0.268,0.254,0.246,0.143,0.086,north-northeast,3.7,No
2020/09/09,08:20,0.183,0.162,0.269,0.254,0.246,0.143,0.086,north-northeast,2.0,No
2020/09/09,08:30,0.180,0.162,0.270,0.254,0.246,0.141,0.085,north-northeast,3.2,No
2020/09/09,08:40,0.180,0.162,0.269,0.255,0.247,0.142,0.086,northeast,3.4,No
2020/09/09,08:50,0.179,0.162,0.270,0.255,0.247,0.143,0.086,north-northeast,4.2,No
2020/09/09,09:00,0.181,0.162,0.269,0.255,0.247,0.144,0.086,north-northeast,4.3,No
2020/09/09,09:10,0.179,0.162,0.269,0.255,0.247,0.142,0.085,north,4.3,No
2020/09/09,09:20,0.180,0.162,0.269,0.256,0.247,0.142,0.086,north,3.5,No
2020/09/09,09:30,0.180,0.162,0.269,0.256,0.248,0.142,0.086,north,3.7,No
2020/09/09,09:40,0.179,0.162,0.269,0.255,0.248,0.142,0.085,north,3.6,No
2020/09/09,09:50,0.179,0.163,0.269,0.254,0.247,0.142,0.086,north,5.3,No
2020/09/09,10:00,0.180,0.163,0.269,0.255,0.248,0.143,0.085,north,5.5,No
2020/09/09,10:10,0.181,0.164,0.267,0.254,0.249,0.142,0.086,north,4.2,No
2020/09/09,10:20,0.179,0.163,0.268,0.254,0.248,0.143,0.086,north,3.6,No
2020/09/09,10:30,0.180,0.163,0.268,0.254,0.247,0.142,0.086,north,4.8,No
2020/09/09,10:40,0.180,0.164,0.270,0.254,0.249,0.143,0.085,north-northeast,3.8,No
2020/09/09,10:50,0.179,0.164,0.270,0.256,0.248,0.143,0.086,north-northeast,4.1,No
2020/09/09,11:00,0.180,0.164,0.270,0.257,0.249,0.142,0.087,north-northeast,2.7,No
2020/09/09,11:10,0.181,0.164,0.271,0.256,0.248,0.144,0.085,north-northeast,3.3,No
2020/09/09,11:20,0.181,0.164,0.271,0.256,0.247,0.144,0.087,north-northeast,3.5,No
2020/09/09,11:30,0.181,0.163,0.270,0.256,0.248,0.144,0.086,north-northeast,3.3,No
2020/09/09,11:40,0.181,0.164,0.271,0.256,0.248,0.143,0.086,northeast,3.5,No
2020/09/09,11:50,0.182,0.163,0.270,0.256,0.248,0.143,0.086,northeast,3.5,No
2020/09/09,12:00,0.182,0.164,0.270,0.256,0.249,0.143,0.086,east-northeast,2.3,No
2020/09/09,12:10,0.181,0.164,0.271,0.257,0.249,0.144,0.086,northeast,2.3,No
2020/09/09,12:20,0.182,0.164,0.271,0.259,0.249,0.143,0.086,northeast,3.1,No
2020/09/09,12:30,0.182,0.163,0.270,0.257,0.248,0.142,0.086,east-northeast,1.4,No
2020/09/09,12:40,0.181,0.163,0.270,0.257,0.248,0.143,0.086,east-northeast,3.1,No
2020/09/09,12:50,0.181,0.164,0.270,0.256,0.248,0.142,0.086,northeast,1.4,No
2020/09/09,13:00,0.181,0.163,0.269,0.256,0.248,0.144,0.086,northeast,3.0,No
2020/09/09,13:10,0.180,0.163,0.269,0.255,0.247,0.143,0.085,east-northeast,3.6,No
2020/09/09,13:20,0.180,0.163,0.268,0.255,0.248,0.142,0.086,east-northeast,3.2,No
2020/09/09,13:30,0.179,0.164,0.269,0.256,0.247,0.143,0.086,northeast,3.3,No
2020/09/09,13:40,0.180,0.164,0.269,0.256,0.248,0.143,0.086,east-northeast,3.6,No
2020/09/09,13:50,0.181,0.163,0.271,0.255,0.247,0.143,0.086,east-northeast,3.9,No
2020/09/09,14:00,0.181,0.164,0.271,0.254,0.249,0.143,0.086,east,3.7,No
2020/09/09,14:10,0.181,0.164,0.269,0.254,0.249,0.143,0.085,east-northeast,2.3,No
2020/09/09,14:20,0.181,0.164,0.269,0.256,0.248,0.142,0.085,east-northeast,3.0,No
2020/09/09,14:30,0.180,0.164,0.270,0.256,0.248,0.142,0.085,east-northeast,2.7,No
2020/09/09,14:40,0.181,0.164,0.270,0.255,0.248,0.143,0.085,northeast,2.7,No
2020/09/09,14:50,0.180,0.162,0.270,0.256,0.246,0.143,0.085,northeast,2.7,No
2020/09/09,15:00,0.181,0.163,0.269,0.255,0.247,0.143,0.086,east-northeast,2.7,No
2020/09/09,15:10,0.180,0.164,0.269,0.256,0.248,0.144,0.086,east-northeast,3.0,No
2020/09/09,15:20,0.182,0.164,0.270,0.255,0.247,0.143,0.086,east-northeast,0.9,No
2020/09/09,15:30,0.181,0.164,0.269,0.256,0.249,0.143,0.086,northeast,2.8,No
2020/09/09,15:40,0.180,0.163,0.270,0.254,0.248,0.143,0.085,east-northeast,2.5,No
2020/09/09,15:50,0.181,0.162,0.269,0.255,0.247,0.142,0.085,northeast,1.4,No
2020/09/09,16:00,0.181,0.163,0.270,0.255,0.249,0.143,0.085,east-northeast,2.2,No
2020/09/09,16:10,0.181,0.162,0.269,0.254,0.246,0.143,0.085,northeast,2.0,No
2020/09/09,16:20,0.179,0.162,0.268,0.254,0.246,0.143,0.085,east-southeast,1.5,No
2020/09/09,16:30,0.181,0.162,0.269,0.254,0.248,0.143,0.085,east,2.0,No
2020/09/09,16:40,0.179,0.161,0.269,0.253,0.247,0.143,0.085,-,CALM,No
2020/09/09,16:50,0.179,0.162,0.269,0.254,0.247,0.142,0.085,west-northwest,0.8,No
2020/09/09,17:00,0.179,0.161,0.270,0.257,0.247,0.142,0.085,-,CALM,No
2020/09/09,17:10,0.179,0.162,0.275,0.259,0.246,0.143,0.085,south,0.8,No
2020/09/09,17:20,0.180,0.165,0.273,0.257,0.247,0.142,0.084,east,0.6,No
2020/09/09,17:30,0.182,0.165,0.271,0.256,0.246,0.142,0.085,-,CALM,No
2020/09/09,17:40,0.181,0.164,0.269,0.255,0.247,0.142,0.085,south,0.9,No
2020/09/09,17:50,0.180,0.162,0.268,0.254,0.246,0.144,0.086,east-northeast,1.0,No
2020/09/09,18:00,0.179,0.163,0.273,0.258,0.247,0.143,0.085,-,CALM,No
2020/09/09,18:10,0.179,0.164,0.272,0.259,0.249,0.142,0.085,north-northwest,0.8,No
2020/09/09,18:20,0.184,0.164,0.271,0.256,0.251,0.142,0.085,east-southeast,0.6,No
2020/09/09,18:30,0.181,0.163,0.269,0.254,0.249,0.144,0.086,-,CALM,No
2020/09/09,18:40,0.181,0.163,0.272,0.257,0.247,0.144,0.085,west,0.8,No
2020/09/09,18:50,0.180,0.164,0.274,0.258,0.246,0.143,0.085,-,CALM,No
2020/09/09,19:00,0.181,0.163,0.271,0.256,0.250,0.142,0.085,-,CALM,No
2020/09/09,19:10,0.182,0.163,0.268,0.255,0.251,0.143,0.085,northwest,1.0,No
2020/09/09,19:20,0.180,0.163,0.272,0.258,0.247,0.144,0.086,north-northwest,0.9,No
2020/09/09,19:30,0.179,0.165,0.273,0.258,0.246,0.143,0.086,north-northeast,0.8,No
2020/09/09,19:40,0.182,0.163,0.271,0.256,0.249,0.142,0.085,north-northeast,1.2,No
2020/09/09,19:50,0.182,0.163,0.269,0.256,0.250,0.144,0.086,north,1.4,No
2020/09/09,20:00,0.180,0.164,0.273,0.259,0.247,0.144,0.086,north-northeast,1.4,No
2020/09/09,20:10,0.180,0.164,0.272,0.257,0.247,0.143,0.086,east-northeast,1.4,No
2020/09/09,20:20,0.183,0.164,0.271,0.256,0.252,0.143,0.086,northeast,1.0,No
2020/09/09,20:30,0.182,0.164,0.273,0.258,0.250,0.145,0.086,-,CALM,No
2020/09/09,20:40,0.180,0.164,0.274,0.258,0.247,0.143,0.086,south,0.8,No
2020/09/09,20:50,0.182,0.163,0.271,0.255,0.247,0.142,0.086,north-northeast,0.7,No
2020/09/09,21:00,0.182,0.163,0.269,0.256,0.251,0.144,0.086,-,CALM,No
2020/09/09,21:10,0.181,0.165,0.274,0.259,0.250,0.144,0.086,-,CALM,No
2020/09/09,21:20,0.180,0.164,0.272,0.255,0.247,0.143,0.086,-,CALM,No
2020/09/09,21:30,0.182,0.164,0.269,0.256,0.250,0.143,0.086,-,CALM,No
2020/09/09,21:40,0.183,0.164,0.273,0.259,0.250,0.144,0.086,-,CALM,No
2020/09/09,21:50,0.180,0.164,0.273,0.256,0.249,0.144,0.086,-,CALM,No
2020/09/09,22:00,0.181,0.164,0.270,0.255,0.247,0.143,0.086,-,CALM,No
2020/09/09,22:10,0.182,0.165,0.272,0.259,0.252,0.145,0.086,southeast,0.6,No
2020/09/09,22:20,0.181,0.165,0.275,0.258,0.250,0.145,0.086,south-southwest,0.7,No
2020/09/09,22:30,0.181,0.164,0.272,0.256,0.249,0.144,0.087,west-southwest,1.4,No
2020/09/09,22:40,0.183,0.165,0.273,0.259,0.251,0.145,0.087,south,1.5,No
2020/09/09,22:50,0.183,0.164,0.274,0.258,0.251,0.145,0.087,south-southeast,1.0,No
2020/09/09,23:00,0.181,0.163,0.272,0.256,0.248,0.143,0.087,south,1.2,No
2020/09/09,23:10,0.182,0.164,0.271,0.258,0.247,0.143,0.086,south,1.0,No
2020/09/09,23:20,0.182,0.164,0.275,0.258,0.251,0.144,0.086,south,0.7,No
2020/09/09,23:30,0.181,0.163,0.271,0.256,0.249,0.143,0.087,south,0.7,No
2020/09/09,23:40,0.182,0.164,0.271,0.258,0.248,0.144,0.087,south,0.6,No
2020/09/09,23:50,0.182,0.164,0.274,0.258,0.251,0.146,0.086,south,0.6,No
